Starlink 30338

operational
NORAD ID: 57718 Int'l Des: 2023-129 Owner: SPXS Country: US Constellation: starlink
LEOCIRCULAR

About Starlink 30338

Description loading...

Live Position

Loading 3D Globe...

Upcoming Passes

Altitude History

Altitude vs Time

uPlot chart will show altitude changes over time

Two-Line Element Set

1 57718U 23129W 25304.70508137 .00000512 00000-0 52948-4 0 9990
2 57718 43.0035 100.9983 0001234 263.9058 96.1644 15.02536552121253
Epoch: Oct 31, 2025 • Age: 23 hours

Current Status

Altitude 561.6 km
Velocity 7.58 km/s
Sub-Earth Point -14.76°S, 8.57°E
Launch Date Aug 27, 2023
Age 2.1 years
Type internet

Technical Details

Classification Payload
Mass 730.00 kg
Dry Mass 700.00 kg
Total Mass 730.00 kg
Length 0.30 m
Diameter 4.10 m
Span 29.00 m
Shape Box + pan
Manufacturer SPXS
Bus Type Starlink V2M
Phase Status In Orbit
Owner/State SPXS/US

Large Constellations

Loading constellations...